When you browse on this site, cookies collect data to enhance your experience and personalize the content and advertising you see.
Visit our Privacy Policy to learn more. By continuing to use the site, you agree to this use of cookies and data.
  • In Hungary
  • List of Countries
  • For 7 days
  • Water Temperature
  • Satellite Maps
  • Weather Map
  • News
  • Weather Widgets
  • user-avatar
    Login

    Hourly Weather Preston

    Today, 16 January, Wednesday

    Time Temperature Precipitation Wind Pressure Humidity
    00:00 +8°C° 0 mm 6 mps 752 mmHg 84%
    01:00 +8°C° 0 mm 6 mps 751 mmHg 84%
    02:00 +8°C° 0 mm 7 mps 750 mmHg 84%
    03:00 +8°C° 0 mm 7 mps 749 mmHg 84%
    04:00 +7°C° 0.1 mm 8 mps 749 mmHg 84%
    05:00 +7°C° 0.1 mm 8 mps 748 mmHg 83%
    06:00 +7°C° 0.1 mm 8 mps 748 mmHg 83%
    07:00 +7°C° 0.7 mm 8 mps 747 mmHg 85%
    08:00 +6°C° 0.7 mm 7 mps 747 mmHg 87%
    09:00 +6°C° 0.7 mm 7 mps 747 mmHg 90%
    10:00 +6°C° 1.1 mm 7 mps 747 mmHg 86%
    11:00 +5°C° 1.1 mm 7 mps 746 mmHg 82%
    12:00 +5°C° 1.1 mm 6 mps 746 mmHg 78%
    13:00 +5°C° 0.2 mm 7 mps 746 mmHg 75%
    14:00 +5°C° 0.2 mm 7 mps 746 mmHg 72%
    15:00 +4°C° 0.2 mm 7 mps 746 mmHg 69%
    16:00 +4°C° 0.4 mm 6 mps 746 mmHg 72%
    17:00 +3°C° 0.4 mm 6 mps 746 mmHg 75%
    18:00 +3°C° 0.4 mm 5 mps 746 mmHg 78%
    19:00 +3°C° 0.4 mm 5 mps 746 mmHg 79%
    20:00 +3°C° 0.4 mm 5 mps 747 mmHg 80%
    21:00 +4°C° 0.4 mm 4 mps 747 mmHg 81%
    22:00 +2°C° 0.1 mm 5 mps 748 mmHg 81%
    23:00 +2°C° 0.1 mm 5 mps 748 mmHg 81%

    Tomorrow, 17 January, Thursday

    Time Temperature Precipitation Wind Pressure Humidity
    00:00 +2°C° 0.1 mm 5 mps 749 mmHg 81%
    01:00 +1°C° 0 mm 5 mps 750 mmHg 81%
    02:00 +1°C° 0 mm 6 mps 751 mmHg 81%
    03:00 +1°C° 0 mm 6 mps 752 mmHg 80%
    04:00 -1°C° 0 mm 6 mps 753 mmHg 76%
    05:00 -2°C° 0 mm 6 mps 754 mmHg 72%
    06:00 -2°C° 0 mm 6 mps 755 mmHg 67%
    07:00 -2°C° 0 mm 6 mps 756 mmHg 67%
    08:00 -2°C° 0 mm 6 mps 757 mmHg 66%
    09:00 -1°C° 0 mm 5 mps 758 mmHg 66%
    10:00 -1°C° 0 mm 5 mps 758 mmHg 61%
    11:00 -1°C° 0 mm 6 mps 759 mmHg 57%
    12:00 +1°C° 0 mm 6 mps 759 mmHg 53%
    13:00 +1°C° 0 mm 5 mps 759 mmHg 56%
    14:00 +1°C° 0 mm 4 mps 759 mmHg 59%
    15:00 +1°C° 0 mm 4 mps 759 mmHg 63%
    16:00 +2°C° 0 mm 3 mps 760 mmHg 64%
    17:00 +2°C° 0 mm 2 mps 760 mmHg 66%
    18:00 +3°C° 0 mm 1 mps 761 mmHg 68%
    19:00 +3°C° 0 mm 1 mps 761 mmHg 68%
    20:00 +3°C° 0 mm 1 mps 761 mmHg 68%
    21:00 +2°C° 0 mm 1 mps 761 mmHg 68%
    22:00 +1°C° 0 mm 2 mps 761 mmHg 68%
    23:00 0°C° 0 mm 3 mps 760 mmHg 68%

    Day after tomorrow, 18 January, Friday

    Time Temperature Precipitation Wind Pressure Humidity
    00:00 0°C° 0 mm 3 mps 760 mmHg 68%
    01:00 -1°C° 0 mm 4 mps 760 mmHg 69%
    02:00 -1°C° 0 mm 4 mps 759 mmHg 69%
    03:00 -1°C° 0 mm 4 mps 759 mmHg 69%
    04:00 -1°C° 0 mm 5 mps 758 mmHg 69%
    05:00 -1°C° 0 mm 5 mps 757 mmHg 68%
    06:00 -1°C° 0 mm 5 mps 757 mmHg 67%
    07:00 -2°C° 0.1 mm 6 mps 756 mmHg 69%
    08:00 -2°C° 0.1 mm 7 mps 756 mmHg 71%
    09:00 -1°C° 0.1 mm 7 mps 755 mmHg 73%
    10:00 -1°C° 1.6 mm 7 mps 755 mmHg 77%
    11:00 -1°C° 1.6 mm 7 mps 754 mmHg 82%
    12:00 0°C° 1.6 mm 8 mps 754 mmHg 86%
    13:00 0°C° 2.2 mm 8 mps 753 mmHg 88%
    14:00 0°C° 2.2 mm 8 mps 752 mmHg 91%
    15:00 0°C° 2.2 mm 8 mps 752 mmHg 93%
    16:00 0°C° 0.2 mm 7 mps 752 mmHg 93%
    17:00 0°C° 0.2 mm 7 mps 752 mmHg 93%
    18:00 +1°C° 0.2 mm 6 mps 751 mmHg 94%
    19:00 +1°C° 0 mm 6 mps 751 mmHg 95%
    20:00 +1°C° 0 mm 5 mps 751 mmHg 95%
    21:00 +1°C° 0 mm 4 mps 751 mmHg 96%
    22:00 +2°C° 0 mm 3 mps 751 mmHg 96%
    23:00 +2°C° 0 mm 3 mps 751 mmHg 97%

    19 January, Saturday

    Time Temperature Precipitation Wind Pressure Humidity
    00:00 +2°C° 0 mm 3 mps 751 mmHg 97%
    01:00 +2°C° 0 mm 3 mps 751 mmHg 97%
    02:00 +2°C° 0 mm 3 mps 751 mmHg 97%
    03:00 +2°C° 0 mm 3 mps 751 mmHg 98%
    04:00 +2°C° 0 mm 3 mps 751 mmHg 97%
    05:00 +2°C° 0 mm 3 mps 751 mmHg 97%
    06:00 +2°C° 0 mm 3 mps 751 mmHg 97%
    07:00 +2°C° 0 mm 3 mps 751 mmHg 97%
    08:00 +2°C° 0 mm 3 mps 752 mmHg 96%
    09:00 +2°C° 0 mm 3 mps 752 mmHg 95%
    10:00 +3°C° 0 mm 3 mps 752 mmHg 94%
    11:00 +3°C° 0 mm 3 mps 753 mmHg 93%
    12:00 +4°C° 0 mm 3 mps 753 mmHg 92%
    13:00 +4°C° 0 mm 2 mps 753 mmHg 92%
    14:00 +4°C° 0 mm 2 mps 753 mmHg 92%
    15:00 +4°C° 0 mm 2 mps 753 mmHg 92%
    16:00 +4°C° 0 mm 2 mps 754 mmHg 91%
    17:00 +4°C° 0 mm 2 mps 754 mmHg 91%
    18:00 +4°C° 0 mm 2 mps 755 mmHg 91%
    19:00 +5°C° 0 mm 1 mps 755 mmHg 91%
    20:00 +5°C° 0 mm 1 mps 756 mmHg 90%
    21:00 +5°C° 0 mm 1 mps 756 mmHg 90%
    22:00 +5°C° 0 mm 1 mps 757 mmHg 90%
    23:00 +5°C° 0 mm 1 mps 757 mmHg 91%

    20 January, Sunday

    Time Temperature Precipitation Wind Pressure Humidity
    00:00 +5°C° 0 mm 1 mps 758 mmHg 91%
    01:00 +5°C° 0 mm 1 mps 758 mmHg 91%
    02:00 +5°C° 0 mm 1 mps 758 mmHg 90%
    03:00 +5°C° 0 mm 1 mps 759 mmHg 90%
    04:00 +5°C° 0 mm 1 mps 759 mmHg 90%
    05:00 +4°C° 0 mm 1 mps 760 mmHg 89%
    06:00 +4°C° 0 mm 1 mps 760 mmHg 89%
    07:00 +4°C° 0 mm 1 mps 761 mmHg 89%
    08:00 +4°C° 0 mm 1 mps 761 mmHg 89%
    09:00 +4°C° 0 mm 1 mps 762 mmHg 88%
    10:00 +5°C° 0 mm 1 mps 762 mmHg 88%
    11:00 +6°C° 0 mm 1 mps 763 mmHg 87%
    12:00 +6°C° 0 mm 1 mps 763 mmHg 86%
    13:00 +6°C° 0 mm 1 mps 763 mmHg 87%
    14:00 +6°C° 0 mm 1 mps 764 mmHg 88%
    15:00 +6°C° 0 mm 1 mps 764 mmHg 89%
    16:00 +6°C° 0 mm 1 mps 765 mmHg 91%
    17:00 +4°C° 0 mm 2 mps 765 mmHg 92%
    18:00 +4°C° 0 mm 2 mps 766 mmHg 93%
    19:00 +3°C° 0 mm 2 mps 766 mmHg 93%
    20:00 +3°C° 0 mm 2 mps 767 mmHg 93%
    21:00 +3°C° 0 mm 2 mps 768 mmHg 93%
    22:00 +3°C° 0 mm 2 mps 768 mmHg 92%
    23:00 +2°C° 0 mm 2 mps 768 mmHg 92%

    21 January, Monday

    Time Temperature Precipitation Wind Pressure Humidity
    00:00 +2°C° 0 mm 2 mps 769 mmHg 92%
    01:00 +2°C° 0 mm 2 mps 769 mmHg 91%
    02:00 +1°C° 0 mm 2 mps 769 mmHg 90%
    03:00 +1°C° 0 mm 2 mps 769 mmHg 89%
    04:00 +1°C° 0 mm 2 mps 769 mmHg 89%
    05:00 +1°C° 0 mm 2 mps 769 mmHg 88%
    06:00 +1°C° 0 mm 2 mps 769 mmHg 87%
    07:00 +1°C° 0 mm 2 mps 769 mmHg 86%
    08:00 +1°C° 0 mm 2 mps 770 mmHg 85%
    09:00 +1°C° 0 mm 2 mps 770 mmHg 84%
    10:00 +2°C° 0 mm 2 mps 769 mmHg 81%
    11:00 +3°C° 0 mm 2 mps 769 mmHg 78%
    12:00 +2°C° 0 mm 3 mps 769 mmHg 76%
    13:00 +3°C° 0 mm 3 mps 768 mmHg 77%
    14:00 +3°C° 0 mm 3 mps 768 mmHg 79%
    15:00 +3°C° 0 mm 3 mps 767 mmHg 81%
    16:00 +3°C° 0 mm 4 mps 766 mmHg 83%
    17:00 +3°C° 0 mm 4 mps 766 mmHg 85%
    18:00 +3°C° 0 mm 4 mps 765 mmHg 88%
    19:00 +2°C° 0.2 mm 5 mps 764 mmHg 88%
    20:00 +2°C° 0.2 mm 5 mps 764 mmHg 89%
    21:00 +2°C° 0.2 mm 6 mps 763 mmHg 90%
    22:00 +2°C° 1.1 mm 6 mps 763 mmHg 90%
    23:00 +3°C° 1.1 mm 6 mps 762 mmHg 91%
    Show more